Flight Track Log - Related Links

Times and Time Zones

All times are in EDT time to prevent confusion due to time zone crossing. See the N379PK flight status page for this flight to view local times or setup timezone preferences in your user account.

Time Position Orientation Groundspeed Altitude Reporting Facility
EDT Latitude Longitude Course Direction KTS MPH feet Rate Location/Type
Mon 10:11:03 AM 46.3108 -117.0833 167° South 165 190 5,600  Level Salt Lake Center
Mon 10:12:04 AM 46.2631 -117.0639 164° South 170 196 7,500 1,918 Climbing Salt Lake Center
Mon 10:13:05 AM 46.2136 -117.0489 168° South 176 203 9,500 1,761 Climbing Salt Lake Center
Mon 10:14:00 AM 45.9982 -116.9046 168° South  Level Estimated
Mon 10:15:00 AM 45.9358 -116.8839 167° South  Level FlightAware Approximate
Mon 10:15:08 AM 46.1094 -117.0136 167° South 192 221 12,900  Level Salt Lake Center
Mon 10:16:00 AM 45.8735 -116.8633 167° South  Level FlightAware Approximate
Mon 10:16:09 AM 46.0564 -116.9958 167° South 195 224 14,600  Level Salt Lake Center
Mon 10:17:11 AM 45.9933 -116.9772 168° South 199 229 16,600 1,707 Climbing Salt Lake Center
Mon 10:18:12 AM 45.9422 -116.9592 166° South 197 227 18,100 1,488 Climbing Salt Lake Center
Mon 10:19:20 AM 45.8850 -116.9417 168° South 196 226 19,800 947 Climbing Seattle Center
Mon 10:21:22 AM 45.7650 -116.9028 167° South 236 272 21,100 426 Climbing Seattle Center
Mon 10:22:23 AM 45.6947 -116.8806 168° South 256 295 21,100  Level Seattle Center
Mon 10:23:24 AM 45.6097 -116.8531 167° South 259 298 21,100  Level Seattle Center
Mon 10:24:25 AM 45.5411 -116.8319 168° South 262 302 21,100 -49 Level Seattle Center
Mon 10:25:26 AM 45.4725 -116.8089 167° South 263 303 21,000 -49 Descending Seattle Center
Mon 10:26:27 AM 45.3939 -116.7839 167° South 259 298 21,000  Level Seattle Center
Mon 10:28:27 AM 45.2578 -116.7400 167° South 263 303 21,000  Level Salt Lake Center
Mon 10:31:00 AM 45.1071 -116.6558 158° South  Level FlightAware Approximate
Mon 10:31:31 AM 45.0414 -116.6739 158° South 262 302 21,000  Level Seattle Center
Mon 10:34:00 AM 44.9584 -116.5972 167° South  Level FlightAware Approximate
Mon 10:34:37 AM 44.8125 -116.6011 167° South 267 307 21,000  Level Salt Lake Center
Mon 10:36:36 AM 44.6742 -116.5589 168° South 266 306 21,000 -300 Level Seattle Center
Mon 10:37:37 AM 44.5917 -116.5339 168° South 270 311 20,100 -844 Descending Seattle Center
Mon 10:38:44 AM 44.5056 -116.5067 167° South 281 323 19,200 -797 Descending Salt Lake Center
Mon 10:39:45 AM 44.4319 -116.4839 168° South 283 326 18,400 -811 Descending Salt Lake Center
Mon 10:41:49 AM 44.2756 -116.4375 168° South 279 321 16,700 -996 Descending Salt Lake Center
Mon 10:43:00 AM 44.2065 -116.3898 144° Southeast  Level FlightAware Approximate
Mon 10:43:52 AM 44.1225 -116.3903 144° Southeast 275 316 14,300  Level Salt Lake Center
Mon 10:44:54 AM 44.0531 -116.3694 168° South 268 308 13,200 -581 Descending Salt Lake Center
Mon 10:45:56 AM 43.9750 -116.3614 176° South 247 284 13,100 -683 Descending Salt Lake Center
Mon 10:46:57 AM 43.9097 -116.3556 176° South 247 284 11,800 -1,561 Descending Salt Lake Center
Mon 10:47:59 AM 43.8244 -116.3531 179° South 273 314 9,900 -1,645 Descending Salt Lake Center
Mon 10:49:01 AM 43.7539 -116.3483 177° South 264 304 8,400 -1,597 Descending Salt Lake Center
Mon 10:50:03 AM 43.6744 -116.3397 176° South 256 295 6,600 -1,427 Descending Salt Lake Center
Mon 10:52:06 AM 43.5872 -116.2981 161° South 150 173 4,000 -1,005 Descending Salt Lake Center
Mon 10:53:08 AM 43.5747 -116.2553 112° Southeast 138 159 3,500 -484 Descending Salt Lake Center
Mon 10:55:00 AM 43.5644 -116.2229 180° South  Level Estimated
Mon 11:02:00 AM 43.5644 -116.2229 180° South  Level Estimated

Login

Don't have an account? Register now (free) for customized features, flight alerts, and more!